Location: Unspecified
(0.0000°N, 0.0000°E)
Time: 12:20:40
(UTC+00:00)

Transit 2A - All Passes

Search period start: 24 September 2017 00:00
Search period end: 04 October 2017 00:00
Orbit: 593 x 966 km, 66.7° (Epoch: 24 September)

Date Brightness Start Highest point End Pass type
(mag) Time Alt. Az. Time Alt. Az. Time Alt. Az.
24 Sep - 07:39:32 10° SSE 07:43:19 28° ESE 07:47:17 10° NE daylight
24 Sep - 09:24:29 10° W 09:26:16 12° WNW 09:28:06 10° NW daylight
24 Sep - 20:12:26 10° NNW 20:18:44 79° WSW 20:24:38 10° SSE visible
25 Sep - 07:06:41 10° SSE 07:09:22 16° ESE 07:12:09 10° ENE daylight
25 Sep - 08:48:46 10° WSW 08:52:12 22° WNW 08:55:49 10° NNW daylight
25 Sep - 19:38:30 10° NNW 19:44:44 66° ENE 19:50:35 10° SSE visible
26 Sep - 08:14:03 10° SW 08:18:09 38° WNW 08:22:35 10° N daylight
26 Sep - 19:04:51 10° N 19:10:43 41° ENE 19:16:15 10° SE visible
26 Sep - 20:49:49 10° WNW 20:53:37 17° WSW 20:57:19 10° SSW visible
27 Sep - 07:39:46 10° SSW 07:44:09 72° WNW 07:48:53 10° NNE daylight
27 Sep - 18:31:34 10° NNE 18:36:40 26° ENE 18:41:32 10° ESE visible
27 Sep - 20:14:31 10° NW 20:19:40 27° WSW 20:24:33 10° SSW visible
28 Sep - 07:05:50 10° S 07:10:11 61° ESE 07:14:51 10° NNE daylight
28 Sep - 17:58:53 10° NNE 18:02:36 16° ENE 18:06:11 10° ESE daylight
28 Sep - 19:39:50 10° NW 19:45:43 44° WSW 19:51:14 10° S visible
29 Sep - 06:32:16 10° S 06:36:14 33° ESE 06:40:27 10° NE daylight
29 Sep - 08:18:14 10° W 08:19:14 11° WNW 08:20:15 10° NW daylight
29 Sep - 19:05:31 10° NNW 19:11:44 71° WSW 19:17:33 10° SSE visible
30 Sep - 05:59:13 10° SSE 06:02:18 18° ESE 06:05:30 10° ENE daylight
30 Sep - 07:41:56 10° WSW 07:45:09 19° WNW 07:48:34 10° NNW daylight
30 Sep - 18:31:30 10° NNW 18:37:46 74° ENE 18:43:34 10° SSE visible
01 Oct - 07:07:04 10° SW 07:11:06 34° WNW 07:15:27 10° N daylight
01 Oct - 17:57:47 10° N 18:03:44 46° ENE 18:09:18 10° SE daylight
01 Oct - 19:43:22 10° WNW 19:46:37 15° WSW 19:49:47 10° SW visible
02 Oct - 06:32:42 10° SSW 06:37:05 62° WNW 06:41:51 10° N daylight
02 Oct - 17:24:24 10° N 17:29:41 29° ENE 17:34:42 10° SE daylight
02 Oct - 19:07:49 10° NW 19:12:40 24° WSW 19:17:16 10° SSW visible
03 Oct - 05:58:41 10° SSW 06:03:06 71° ESE 06:07:53 10° NNE daylight
03 Oct - 16:51:33 10° NNE 16:55:37 18° ENE 16:59:32 10° ESE daylight
03 Oct - 18:33:00 10° NW 18:38:43 39° WSW 18:44:03 10° S visible
